Home   Weather   Houston   Past weeks

Flag for USA Past Weather in Houston, Texas, USA — Yesterday and Last 2 Weeks

Now
65 °F

Mostly cloudy.


Feels Like: 65 °F
Forecast: 64 / 74 °F
Wind: 3 mph from Southeast

Location: Houston Hobby Airport

Current Time: Jan 21, 2017 at 4:56:31 am

Latest Report: Jan 21, 2017 at 4:17 am


Visibility: 9 mi

Pressure: 29.61 "Hg

Humidity: 97%

Dew Point: 64 °F

Location of HoustonLocation

Past Weather in Houston — Graph

°F

Houston Temperature Yesterday

Maximum temperature yesterday: 79 °F (at 1:53 pm)
Minimum temperature yesterday: 57 °F (at 6:53 am)
Average temperature yesterday: 65 °F

High & Low Weather Summary for the Past Weeks

 TemperatureHumidityPressure
High79 °F (Jan 16, 11:53 am)100% (Jan 12, 8:53 pm)30.77 "Hg (Jan 12, 8:53 pm)
Low23 °F (Jan 7, 7:53 am)30% (Jan 7, 3:53 pm)29.65 "Hg (Jan 21, 2:53 am)
Average62 °F85%30.14 "Hg
* Reported Jan 6 2:53 am — Jan 21 2:53 am, Houston, Weather by CustomWeather, © 2017

Note: Actual official high and low records may vary slightly from our data, if they occured in-between our weather recording intervals... More about our weather records

Advertising

Houston Weather History for the Previous 24 Hours

Scroll right to see more
 ConditionsComfort  
Time TempWeatherWind HumidityBarometerVisibility
2:53 am
Sat, Jan 21
66 °FMostly cloudy.3 mph93%29.65 "Hg8 mi
1:53 am66 °FLow clouds.No wind93%29.65 "Hg8 mi
12:53 am66 °FLow clouds.5 mph96%29.67 "Hg10 mi
12:18 am66 °FMostly cloudy.7 mph96%29.66 "Hg10 mi
11:53 pm
Fri, Jan 20
67 °FThunderstorms. Overcast.10 mph93%29.68 "Hg9 mi
11:28 pm67 °FThunderstorms. Low clouds.5 mph97%29.67 "Hg7 mi
10:53 pm66 °FThunderstorms. Mostly cloudy.9 mph93%29.66 "Hg8 mi
10:37 pm65 °FLow clouds.5 mph97%29.66 "Hg10 mi
9:53 pm65 °FMostly cloudy.3 mph97%29.70 "Hg10 mi
8:53 pm65 °FMostly cloudy.6 mph94%29.71 "Hg10 mi
8:15 pm66 °FLight rain. Overcast.6 mph93%29.70 "Hg10 mi
7:53 pm66 °FMostly cloudy.7 mph93%29.71 "Hg10 mi
7:28 pm65 °FOvercast.7 mph97%29.69 "Hg10 mi
6:59 pm65 °FThunderstorms. Fog.No wind97%29.69 "Hg3 mi
5:53 pm70 °FThunderstorms. Fog.5 mph90%29.68 "Hg2 mi
5:14 pm73 °FThunderstorms. Cloudy.8 mph79%29.65 "Hg10 mi
4:53 pm73 °FCloudy.8 mph79%29.69 "Hg10 mi
4:06 pm74 °FThunderstorms. More clouds than sun.9 mph74%29.69 "Hg10 mi
3:53 pm75 °FMore clouds than sun.14 mph71%29.69 "Hg10 mi
2:53 pm79 °FScattered clouds.12 mph56%29.70 "Hg10 mi
1:53 pm79 °FBroken clouds.6 mph58%29.71 "Hg10 mi
12:53 pm78 °FPartly sunny.3 mph62%29.74 "Hg10 mi
11:53 am76 °FPartly sunny.6 mph67%29.79 "Hg10 mi
10:53 am73 °FPartly sunny.7 mph71%29.83 "Hg10 mi
9:53 am69 °FPartly sunny.8 mph81%29.85 "Hg10 mi
8:53 am62 °FScattered clouds.10 mph100%29.84 "Hg7 mi
8:34 am61 °FFog.9 mph97%29.82 "Hg1 mi
8:16 am60 °FFog.9 mph96%29.82 "Hg1 mi
8:04 am59 °FFog.12 mph100%29.82 "Hg1 mi
7:53 am59 °FFog.8 mph100%29.82 "Hg2 mi
7:37 am58 °FFog.5 mph97%29.80 "Hg1 mi
6:53 am57 °FFog.No wind100%29.79 "Hg0 mi
6:04 am59 °FFog.No wind100%29.76 "Hg1 mi
5:53 am60 °FFog.3 mph96%29.77 "Hg1 mi
5:32 am59 °FFog.3 mph100%29.76 "Hg1 mi
5:15 am59 °FFog.No wind100%29.76 "Hg2 mi
5:06 am61 °FFog.3 mph97%29.75 "Hg2 mi
Weather by CustomWeather, © 2017

See weather overviewHow to use our weather pages